TEMELIN Weather Reports


time (UTC)temp
C
wind
direction
speed
KPH
gust
KPH
rain 1hr
cm
rain 24hr
cm
rain mn
cm
humidity
%
barometer
mb
20260507151817 15 280 14.5 0.0 0.00 0.00 0.00 58
20260507141821 15 280 14.5 0.0 0.00 0.00 0.00 54
20260507131921 15 230 11.3 0.0 0.00 0.00 0.00 54
20260507121819 13 260 14.5 0.0 0.00 0.00 0.00 62
20260507111820 16 250 19.3 0.0 0.00 0.00 0.00 59
20260507102032 13 260 11.3 0.0 0.00 0.00 0.00 62
20260507091818 13 240 14.5 0.0 0.00 0.00 0.00 62
20260507081818 12 250 19.3 0.0 0.00 0.00 0.00 66
20260507071820 12 230 22.5 0.0 0.00 0.00 0.00 71
20260507061818 12 230 14.5 0.0 0.00 0.00 0.00 76
20260507051817 8 230 14.5 0.0 0.00 0.00 0.00 93
20260507042031 10 210 8.0 0.0 0.00 0.00 0.00 87
20260507031819 8 220 8.0 0.0 0.00 0.00 0.00 93
20260507021816 8 230 14.5 0.0 0.00 0.00 0.00 93
20260507011918 11 250 11.3 0.0 0.00 0.00 0.00 87
20260507001818 11 240 8.0 0.0 0.00 0.00 0.00 93
20260506231819 11 230 11.3 0.0 0.00 0.00 0.00 93
20260506222030 12 250 19.3 0.0 0.00 0.00 0.00 93
20260506211818 12 290 11.3 0.0 0.00 0.00 0.00 93
20260506201835 12 280 22.5 38.6 0.00 0.00 0.00 93
20260506191922 15 280 11.3 0.0 0.00 0.00 0.00 77
20260506181907 17 10 25.7 0.0 0.00 0.00 0.00 63
20260506171822 17 10 19.3 0.0 0.00 0.00 0.00 55
20260506162031 22 90 11.3 0.0 0.00 0.00 0.00 37